Airfield :
LOGIN :

Register | Disclaimer

   EN    FR    IT 

 










Legend :    VFR   Marginal VFR   IFR   Intensive IFR   Very Intensive IFR
Visi :
Ceiling :
>= 8 km
>= 3000ft
5 to 8 km
1000 to 3000 ft
1500m to 5 km
500 to 1000 ft
800 to 1500m
200 to 500 ft
< 800m
< 200 ft
Symbols :   Thunderstorms  Fog  Heavy snow  Heavy precipitations  Wind > 20 kt
SIGMETs :     Misc.  Thunderstorms  Icing  Turbulence  Mountain Waves  Volcanic Ashes







- Airport Elevation : 156 ft
- IATA code : OMO


LQMO - Mostar

CURRENT METAR :
  • 251200Z 10005KT 010V150 9999 FEW045 28/05 Q1015

EXPIRED METARs :
  • 251100Z 14005KT 080V190 9999 FEW045 27/09 Q1015
  • 251000Z VRB03KT 9999 FEW040 25/08 Q1016
  • 250930Z 34003KT 300V050 9999 FEW045 24/08 Q1017
  • 250900Z VRB02KT CAVOK 23/10 Q1017

TAF TAF LQMO
Valid from the 25 at 12:00 until the 26 at 12:00 UTC


251100Z 2512/2612 18006KT CAVOK TX29/2513Z TN12/2604Z
No reported NOTAMs for that airfield.



MET'MAP, your aeronautical weather chart ! - Copyright ORBIFLY December 2007 - Disclaimer

ORBIFLY MET'MAP TEAM :

Programming & Development : Alexandra Zaïnal
Concept & Development : Baudouin d'Aumeries
Co-Development & Prog : Marc-Olivier Méhu
Technical & hardware support : Manuel Goepfert

Contact : metmap@orbifly.com




SOURCES & CREDITS :

   NOAA